sat.trackr.live / text

‹ back to catalog

STARLINK-30583

NORAD 58086 · 2023-160M

PAYLOAD ACTIVE UNKNOWN

§ Identity

Operator
Country
US
Launch date
2023-10-18
Launch site
AFETR
Launch vehicle
Mass (kg)
RCS (m²)

Purposes: comms

External: N2YO · Heavens-Above · Gunter

§ Orbital elements

Epoch: 2026-05-24T23:45:32.821344Z

Period
94.27 min
Inclination
43.0021°
Eccentricity
0.0001088
Mean motion
15.27590545 rev/d
Perigee alt
482.3 km
Apogee alt
483.8 km
Semi-major
6,861.2 km
B*
5.6211e-4
RAAN
10.5016°
Arg perigee
272.2313°
Mean anomaly
87.8414°
Rev number
14,457

§ Raw data

STARLINK-305831 58086U 23160M   26144.98996321  .00015243  00000+0  56211-3 0  99952 58086  43.0021  10.5016 0001088 272.2313  87.8414 15.27590545144575

JSON: /api/v1/satellites/58086 · /tle

For live sub-satellite position, see the globe view (requires WebGL).

§ Visibility from observer

Set your observer location to see the next 7 days of passes ≥ 10°. The values pass through the URL so the page stays shareable.

No JS? Fill the form by hand. The geolocation button needs JavaScript.